Погода в Маэбуре

Маврикий     20°09′24″S   57°30′06″E
темп.,
°C
ветер,
м/с
пор.,
м/с
влажн.,
%
обл.,
%
осадки,
мм/ч
давл.,
гПа
погр.,
м
10 августа, ср
ср1001:00+18юв597552 0.1 1022930
04:00+17юв611744 0.1 1021843
07:00+18юв5105912 0.0 10231149
10:00+20вюв8126559 0.1 10241482
13:00+20вюв9126238 0.3 10221517
16:00+20вюв811595 0.3 10211394
19:00+18вюв7127229 0.1 10231337
22:00+18вюв7127417 0.2 10241183
11 августа, чт
чт1101:00+17вюв7117421 0.2 10241081
04:00+17вюв6118027 0.5 1023985
07:00+17вюв611724 0.3 10241011
10:00+19вюв7117399 0.6 10251279
13:00+18вюв7117798 0.3 10231143
16:00+19вюв71177100 0.6 10231237
19:00+18вюв610688 0.1 10241092
22:00+18вюв6107119 0.4 1025923
12 августа, пт
пт1201:00+18в511654 0.0 1025784
04:00+18вюв6117567 0.4 10231032
07:00+18вюв7117872 0.1 1024901
10:00+20вюв896029 0.2 10251394
13:00+20вюв796887 0.3 10231376
16:00+20вюв796219 0.4 10221443
19:00+18вюв6107619 0.1 1023992
22:00+18вюв610665 0.3 1024978
13 августа, сб
сб1301:00+18вюв69705 0.4 10231025
04:00+17вюв5107771 0.5 1022696
07:00+17вюв5107629 0.3 1023783
10:00+20в796283 0.5 10241499
13:00+21в786279 0.1 10211529
16:00+20вюв785825 0.3 10211403
19:00+18вюв597414 0.1 1022931
22:00+18вюв487240 0.2 1023689
14 августа, вс
вс1401:00+17вюв497219 0.1 1023556
04:00+17в510719 0.4 1021616
07:00+17в487931 0.3 1022615
10:00+20в687131 0.9 10231126
13:00+21в786365 0.3 10201321
16:00+21в67616 0.4 10191279
19:00+18вюв59757 0.0 1021661
22:00+18вюв597827 0.2 1022584